Boyd, WI (54726)

9:56 AM CDT on March 30, 2017 (GMT -0500)
Clear Creek Estates/Sigel Township/Cadott, WI | | Change Station

Elev 1007 ft 44.91 °N, 91.14 °W | Updated 6 seconds ago

Overcast
Overcast
37.0 °F
Feels Like 32 °F
N
6.0
Wind Variable Wind from NE

Today
High -- | Low -- °F
--% Chance of Precip.
Yesterday
High -- | Low -- °F
Precip. -- in
Pressure 29.96 in
Visibility 10.0 miles
Clouds Overcast 1300 ft
Windchill 32 °F
Dew Point 35 °F
Humidity 93%
Rainfall 0.00 in
Snow Depth Not available.
6:47 AM 7:29 PM
Waxing Crescent, 9% visible
METAR KEAU 301356Z 07012KT 10SM OVC013 03/01 A2993 RMK AO2 SLP144 T00280011
Pressure 29.96 in
Visibility 10.0 miles
Clouds Overcast 1300 ft
Windchill 32 °F
Dew Point 35 °F
Humidity 93%
Rainfall 0.00 in
Snow Depth Not available.
6:47 AM 7:29 PM
Waxing Crescent, 9% visible
METAR KEAU 301356Z 07012KT 10SM OVC013 03/01 A2993 RMK AO2 SLP144 T00280011

Get Severe Weather Alerts

Thanks for signing up!

Be on the lookout for a verification email in your inbox.

You'll start receiving the daily forecast at 8 AM.

×

10-Day Weather Forecast

Almanac

Astronomy

Mar. 30, 2017 Rise Set
Actual Time
Civil Twilight
Nautical Twilight
Astronomical Twilight
Moon
Length of Visible Light
Length of Day
Tomorrow will be .
, % of the Moon is Illuminated

Today's Extremes

State Highs State Lows

Community

WunderPhotos

Upload Photos

1,962,540 photos uploaded!

WunderBlog® & News

Nearby

Air Quality

  Air Quality AQ Index Pollutant
Not available.

Snow Depth

Station Depth Elevation

Earthquake Activity

City Distance Mag. Time & Date
Minimum magnitude displayed is 2.5.

Earthquake Activity

City Distance Mag. Time & Date
Minimum magnitude displayed is 2.5.

Coastal Water Temperatures

Place Temperature

Stations

Nearby Weather Stations

Station Location Temp. Windchill Dew Point Humidity Wind Precip. Elev Updated Type
                   

Watches & Warnings

There are currently no watches in effect.